Location: Wolf Creek Estates Observatory
(33.4774°N, 105.6743°W)
Time: 09:08:05
(UTC-07:00)

Tiangong 2 - Visible Passes

Search period start: 23 January 2018 00:00
Search period end: 02 February 2018 00:00
Orbit: 384 x 390 km, 42.8° (Epoch: 23 January)

Date Brightness Start Highest point End Pass type
(mag) Time Alt. Az. Time Alt. Az. Time Alt. Az.
23 Jan 3.3 06:14:09 11° NW 06:15:55 15° N 06:17:53 10° NE visible
24 Jan 3.7 05:18:08 13° NNE 05:18:08 13° NNE 05:18:56 10° NE visible
25 Jan 3.2 05:54:23 14° NNW 05:55:30 16° N 05:57:37 10° NE visible
26 Jan 4.2 04:58:20 10° NE 04:58:20 10° NE 04:58:26 10° NE visible
26 Jan 2.6 06:31:10 10° NW 06:33:57 27° NNE 06:36:43 10° E visible
27 Jan 3.0 05:34:34 19° N 05:35:01 20° NNE 05:37:26 10° ENE visible
28 Jan 1.9 06:10:49 14° NW 06:13:19 43° NNE 06:16:22 10° E visible
29 Jan 2.8 05:14:51 26° NE 05:14:51 26° NE 05:17:13 10° E visible
30 Jan 1.0 05:51:11 31° WNW 05:52:34 84° NE 05:55:44 10° ESE visible
31 Jan 3.5 04:55:19 23° E 04:55:19 23° E 04:56:47 10° E visible
31 Jan 2.7 06:27:50 10° W 06:30:22 22° SW 06:32:53 10° SSE visible
01 Feb 1.6 05:31:48 44° SSW 05:31:48 44° SSW 05:34:42 10° SE visible
